Year,Month,Day,Hour,Minute,Value (Times are PST for insolation in W/m^2)
2014,06,30,00,00,0.00
2014,06,30,00,01,0.00
2014,06,30,00,02,0.00
2014,06,30,00,03,0.00
2014,06,30,00,04,0.00
2014,06,30,00,05,0.00
2014,06,30,00,06,0.00
2014,06,30,00,07,0.00
2014,06,30,00,08,0.00
2014,06,30,00,09,0.00
2014,06,30,00,10,0.00
2014,06,30,00,11,0.00
2014,06,30,00,12,0.00
2014,06,30,00,13,0.00
2014,06,30,00,14,0.00
2014,06,30,00,15,0.00
2014,06,30,00,16,0.00
2014,06,30,00,17,0.00
2014,06,30,00,18,0.00
2014,06,30,00,19,0.00
2014,06,30,00,20,0.00
2014,06,30,00,21,0.00
2014,06,30,00,22,0.00
2014,06,30,00,23,0.00
2014,06,30,00,24,0.00
2014,06,30,00,25,0.00
2014,06,30,00,26,0.00
2014,06,30,00,27,0.00
2014,06,30,00,28,0.00
2014,06,30,00,29,0.00
2014,06,30,00,30,0.00
2014,06,30,00,31,0.00
2014,06,30,00,32,0.00
2014,06,30,00,33,0.00
2014,06,30,00,34,0.00
2014,06,30,00,35,0.00
2014,06,30,00,36,0.00
2014,06,30,00,37,0.00
2014,06,30,00,38,0.00
2014,06,30,00,39,0.00
2014,06,30,00,40,0.00
2014,06,30,00,41,0.00
2014,06,30,00,42,0.00
2014,06,30,00,43,0.00
2014,06,30,00,44,0.00
2014,06,30,00,45,0.00
2014,06,30,00,46,0.00
2014,06,30,00,47,0.00
2014,06,30,00,48,0.00
2014,06,30,00,49,0.00
2014,06,30,00,50,0.00
2014,06,30,00,51,0.00
2014,06,30,00,52,0.00
2014,06,30,00,53,0.00
2014,06,30,00,54,0.00
2014,06,30,00,55,0.00
2014,06,30,00,56,0.00
2014,06,30,00,57,0.00
2014,06,30,00,58,0.00
2014,06,30,00,59,0.00
2014,06,30,01,00,0.00
2014,06,30,01,01,0.00
2014,06,30,01,02,0.00
2014,06,30,01,03,0.00
2014,06,30,01,04,0.00
2014,06,30,01,05,0.00
2014,06,30,01,06,0.00
2014,06,30,01,07,0.00
2014,06,30,01,08,0.00
2014,06,30,01,09,0.00
2014,06,30,01,10,0.00
2014,06,30,01,11,0.00
2014,06,30,01,12,0.00
2014,06,30,01,13,0.00
2014,06,30,01,14,0.00
2014,06,30,01,15,0.00
2014,06,30,01,16,0.00
2014,06,30,01,17,0.00
2014,06,30,01,18,0.00
2014,06,30,01,19,0.00
2014,06,30,01,20,0.00
2014,06,30,01,21,0.00
2014,06,30,01,22,0.00
2014,06,30,01,23,0.00
2014,06,30,01,24,0.00
2014,06,30,01,25,0.00
2014,06,30,01,26,0.00
2014,06,30,01,27,0.00
2014,06,30,01,28,0.00
2014,06,30,01,29,0.00
2014,06,30,01,30,0.00
2014,06,30,01,31,0.00
2014,06,30,01,32,0.00
2014,06,30,01,33,0.00
2014,06,30,01,34,0.00
2014,06,30,01,35,0.00
2014,06,30,01,36,0.00
2014,06,30,01,37,0.00
2014,06,30,01,38,0.00
2014,06,30,01,39,0.00
2014,06,30,01,40,0.00
2014,06,30,01,41,0.00
2014,06,30,01,42,0.00
2014,06,30,01,43,0.00
2014,06,30,01,44,0.00
2014,06,30,01,45,0.00
2014,06,30,01,46,0.00
2014,06,30,01,47,0.00
2014,06,30,01,48,0.00
2014,06,30,01,49,0.00
2014,06,30,01,50,0.00
2014,06,30,01,51,0.00
2014,06,30,01,52,0.00
2014,06,30,01,53,0.00
2014,06,30,01,54,0.00
2014,06,30,01,55,0.00
2014,06,30,01,56,0.00
2014,06,30,01,57,0.00
2014,06,30,01,58,0.00
2014,06,30,01,59,0.00
2014,06,30,02,00,0.00
2014,06,30,02,01,0.00
2014,06,30,02,02,0.00
2014,06,30,02,03,0.00
2014,06,30,02,04,0.00
2014,06,30,02,05,0.00
2014,06,30,02,06,0.00
2014,06,30,02,07,0.00
2014,06,30,02,08,0.00
2014,06,30,02,09,0.00
2014,06,30,02,10,0.00
2014,06,30,02,11,0.00
2014,06,30,02,12,0.00
2014,06,30,02,13,0.00
2014,06,30,02,14,0.00
2014,06,30,02,15,0.00
2014,06,30,02,16,0.00
2014,06,30,02,17,0.00
2014,06,30,02,18,0.00
2014,06,30,02,19,0.00
2014,06,30,02,20,0.00
2014,06,30,02,21,0.00
2014,06,30,02,22,0.00
2014,06,30,02,23,0.00
2014,06,30,02,24,0.00
2014,06,30,02,25,0.00
2014,06,30,02,26,0.00
2014,06,30,02,27,0.00
2014,06,30,02,28,0.00
2014,06,30,02,29,0.00
2014,06,30,02,30,0.00
2014,06,30,02,31,0.00
2014,06,30,02,32,0.00
2014,06,30,02,33,0.00
2014,06,30,02,34,0.00
2014,06,30,02,35,0.00
2014,06,30,02,36,0.00
2014,06,30,02,37,0.00
2014,06,30,02,38,0.00
2014,06,30,02,39,0.00
2014,06,30,02,40,0.00
2014,06,30,02,41,0.00
2014,06,30,02,42,0.00
2014,06,30,02,43,0.00
2014,06,30,02,44,0.00
2014,06,30,02,45,0.00
2014,06,30,02,46,0.00
2014,06,30,02,47,0.00
2014,06,30,02,48,0.00
2014,06,30,02,49,0.00
2014,06,30,02,50,0.00
2014,06,30,02,51,0.00
2014,06,30,02,52,0.00
2014,06,30,02,53,0.00
2014,06,30,02,54,0.00
2014,06,30,02,55,0.00
2014,06,30,02,56,0.00
2014,06,30,02,57,0.00
2014,06,30,02,58,0.00
2014,06,30,02,59,0.00
2014,06,30,03,00,0.00
2014,06,30,03,01,0.00
2014,06,30,03,02,0.00
2014,06,30,03,03,0.00
2014,06,30,03,04,0.00
2014,06,30,03,05,0.00
2014,06,30,03,06,0.00
2014,06,30,03,07,0.00
2014,06,30,03,08,0.00
2014,06,30,03,09,0.00
2014,06,30,03,10,0.00
2014,06,30,03,11,0.00
2014,06,30,03,12,0.00
2014,06,30,03,13,0.00
2014,06,30,03,14,0.00
2014,06,30,03,15,0.00
2014,06,30,03,16,0.00
2014,06,30,03,17,0.00
2014,06,30,03,18,0.00
2014,06,30,03,19,0.00
2014,06,30,03,20,0.00
2014,06,30,03,21,0.00
2014,06,30,03,22,0.00
2014,06,30,03,23,0.00
2014,06,30,03,24,0.00
2014,06,30,03,25,0.00
2014,06,30,03,26,0.00
2014,06,30,03,27,0.00
2014,06,30,03,28,0.00
2014,06,30,03,29,0.00
2014,06,30,03,30,0.00
2014,06,30,03,31,0.00
2014,06,30,03,32,0.00
2014,06,30,03,33,0.00
2014,06,30,03,34,0.00
2014,06,30,03,35,0.00
2014,06,30,03,36,0.00
2014,06,30,03,37,0.00
2014,06,30,03,38,0.00
2014,06,30,03,39,0.00
2014,06,30,03,40,0.00
2014,06,30,03,41,0.00
2014,06,30,03,42,0.00
2014,06,30,03,43,0.00
2014,06,30,03,44,0.00
2014,06,30,03,45,0.00
2014,06,30,03,46,0.00
2014,06,30,03,47,0.00
2014,06,30,03,48,0.00
2014,06,30,03,49,0.00
2014,06,30,03,50,0.00
2014,06,30,03,51,0.00
2014,06,30,03,52,0.00
2014,06,30,03,53,0.00
2014,06,30,03,54,0.00
2014,06,30,03,55,0.00
2014,06,30,03,56,0.00
2014,06,30,03,57,0.00
2014,06,30,03,58,0.00
2014,06,30,03,59,0.00
2014,06,30,04,00,0.00
2014,06,30,04,01,0.00
2014,06,30,04,02,0.00
2014,06,30,04,03,0.00
2014,06,30,04,04,0.00
2014,06,30,04,05,0.00
2014,06,30,04,06,0.00
2014,06,30,04,07,0.00
2014,06,30,04,08,0.00
2014,06,30,04,09,0.00
2014,06,30,04,10,0.00
2014,06,30,04,11,0.00
2014,06,30,04,12,0.00
2014,06,30,04,13,0.00
2014,06,30,04,14,0.00
2014,06,30,04,15,0.00
2014,06,30,04,16,0.00
2014,06,30,04,17,0.00
2014,06,30,04,18,0.00
2014,06,30,04,19,0.00
2014,06,30,04,20,0.00
2014,06,30,04,21,0.00
2014,06,30,04,22,0.00
2014,06,30,04,23,0.00
2014,06,30,04,24,0.00
2014,06,30,04,25,0.00
2014,06,30,04,26,0.00
2014,06,30,04,27,0.00
2014,06,30,04,28,0.00
2014,06,30,04,29,0.00
2014,06,30,04,30,0.00
2014,06,30,04,31,0.00
2014,06,30,04,32,0.00
2014,06,30,04,33,0.00
2014,06,30,04,34,0.00
2014,06,30,04,35,0.00
2014,06,30,04,36,0.00
2014,06,30,04,37,0.00
2014,06,30,04,38,0.00
2014,06,30,04,39,0.00
2014,06,30,04,40,0.00
2014,06,30,04,41,0.00
2014,06,30,04,42,0.00
2014,06,30,04,43,0.00
2014,06,30,04,44,0.00
2014,06,30,04,45,0.00
2014,06,30,04,46,0.00
2014,06,30,04,47,0.00
2014,06,30,04,48,0.00
2014,06,30,04,49,0.00
2014,06,30,04,50,0.00
2014,06,30,04,51,0.00
2014,06,30,04,52,0.00
2014,06,30,04,53,0.00
2014,06,30,04,54,0.00
2014,06,30,04,55,0.00
2014,06,30,04,56,0.00
2014,06,30,04,57,0.00
2014,06,30,04,58,0.00
2014,06,30,04,59,0.00
2014,06,30,05,00,0.00
2014,06,30,05,01,0.00
2014,06,30,05,02,0.00
2014,06,30,05,03,0.00
2014,06,30,05,04,0.00
2014,06,30,05,05,0.00
2014,06,30,05,06,0.00
2014,06,30,05,07,0.00
2014,06,30,05,08,0.00
2014,06,30,05,09,0.00
2014,06,30,05,10,0.00
2014,06,30,05,11,0.00
2014,06,30,05,12,0.00
2014,06,30,05,13,0.00
2014,06,30,05,14,0.00
2014,06,30,05,15,0.00
2014,06,30,05,16,0.00
2014,06,30,05,17,0.00
2014,06,30,05,18,0.00
2014,06,30,05,19,0.00
2014,06,30,05,20,0.00
2014,06,30,05,21,0.20
2014,06,30,05,22,5.00
2014,06,30,05,23,5.00
2014,06,30,05,24,5.00
2014,06,30,05,25,6.20
2014,06,30,05,26,7.00
2014,06,30,05,27,7.00
2014,06,30,05,28,7.00
2014,06,30,05,29,7.00
2014,06,30,05,30,7.00
2014,06,30,05,31,8.30
2014,06,30,05,32,9.00
2014,06,30,05,33,9.00
2014,06,30,05,34,9.40
2014,06,30,05,35,11.40
2014,06,30,05,36,12.00
2014,06,30,05,37,11.40
2014,06,30,05,38,11.00
2014,06,30,05,39,11.50
2014,06,30,05,40,16.00
2014,06,30,05,41,16.00
2014,06,30,05,42,16.00
2014,06,30,05,43,14.70
2014,06,30,05,44,12.40
2014,06,30,05,45,13.90
2014,06,30,05,46,14.00
2014,06,30,05,47,14.00
2014,06,30,05,48,14.00
2014,06,30,05,49,14.00
2014,06,30,05,50,14.00
2014,06,30,05,51,15.60
2014,06,30,05,52,25.00
2014,06,30,05,53,33.40
2014,06,30,05,54,50.10
2014,06,30,05,55,53.70
2014,06,30,05,56,54.00
2014,06,30,05,57,58.00
2014,06,30,05,58,59.00
2014,06,30,05,59,62.00
2014,06,30,06,00,62.00
2014,06,30,06,01,67.20
2014,06,30,06,02,69.90
2014,06,30,06,03,72.00
2014,06,30,06,04,72.00
2014,06,30,06,05,74.20
2014,06,30,06,06,77.00
2014,06,30,06,07,80.00
2014,06,30,06,08,82.80
2014,06,30,06,09,84.40
2014,06,30,06,10,86.70
2014,06,30,06,11,88.90
2014,06,30,06,12,90.00
2014,06,30,06,13,92.20
2014,06,30,06,14,94.90
2014,06,30,06,15,97.20
2014,06,30,06,16,98.00
2014,06,30,06,17,100.10
2014,06,30,06,18,103.30
2014,06,30,06,19,104.00
2014,06,30,06,20,108.80
2014,06,30,06,21,111.00
2014,06,30,06,22,111.00
2014,06,30,06,23,112.00
2014,06,30,06,24,113.70
2014,06,30,06,25,114.00
2014,06,30,06,26,114.60
2014,06,30,06,27,120.20
2014,06,30,06,28,121.80
2014,06,30,06,29,124.10
2014,06,30,06,30,126.40
2014,06,30,06,31,127.80
2014,06,30,06,32,128.40
2014,06,30,06,33,132.90
2014,06,30,06,34,135.00
2014,06,30,06,35,137.20
2014,06,30,06,36,140.40
2014,06,30,06,37,141.90
2014,06,30,06,38,143.90
2014,06,30,06,39,144.00
2014,06,30,06,40,146.20
2014,06,30,06,41,149.00
2014,06,30,06,42,152.00
2014,06,30,06,43,155.70
2014,06,30,06,44,156.60
2014,06,30,06,45,160.70
2014,06,30,06,46,162.50
2014,06,30,06,47,163.00
2014,06,30,06,48,163.00
2014,06,30,06,49,156.10
2014,06,30,06,50,159.00
2014,06,30,06,51,159.40
2014,06,30,06,52,170.40
2014,06,30,06,53,169.00
2014,06,30,06,54,175.20
2014,06,30,06,55,185.40
2014,06,30,06,56,190.40
2014,06,30,06,57,192.40
2014,06,30,06,58,195.00
2014,06,30,06,59,197.00
2014,06,30,07,00,197.00
2014,06,30,07,01,203.40
2014,06,30,07,02,206.20
2014,06,30,07,03,207.70
2014,06,30,07,04,211.10
2014,06,30,07,05,213.60
2014,06,30,07,06,211.50
2014,06,30,07,07,217.60
2014,06,30,07,08,218.00
2014,06,30,07,09,218.00
2014,06,30,07,10,219.10
2014,06,30,07,11,226.80
2014,06,30,07,12,231.60
2014,06,30,07,13,234.30
2014,06,30,07,14,237.50
2014,06,30,07,15,239.80
2014,06,30,07,16,242.10
2014,06,30,07,17,245.10
2014,06,30,07,18,246.00
2014,06,30,07,19,251.30
2014,06,30,07,20,253.50
2014,06,30,07,21,256.20
2014,06,30,07,22,259.10
2014,06,30,07,23,260.00
2014,06,30,07,24,263.40
2014,06,30,07,25,267.30
2014,06,30,07,26,269.90
2014,06,30,07,27,272.00
2014,06,30,07,28,274.40
2014,06,30,07,29,277.50
2014,06,30,07,30,280.50
2014,06,30,07,31,281.00
2014,06,30,07,32,281.00
2014,06,30,07,33,285.50
2014,06,30,07,34,292.50
2014,06,30,07,35,294.80
2014,06,30,07,36,297.00
2014,06,30,07,37,301.20
2014,06,30,07,38,302.80
2014,06,30,07,39,305.00
2014,06,30,07,40,307.90
2014,06,30,07,41,310.50
2014,06,30,07,42,313.10
2014,06,30,07,43,316.00
2014,06,30,07,44,317.60
2014,06,30,07,45,321.60
2014,06,30,07,46,324.30
2014,06,30,07,47,326.60
2014,06,30,07,48,328.90
2014,06,30,07,49,329.00
2014,06,30,07,50,331.80
2014,06,30,07,51,336.00
2014,06,30,07,52,336.00
2014,06,30,07,53,336.00
2014,06,30,07,54,346.20
2014,06,30,07,55,348.50
2014,06,30,07,56,351.20
2014,06,30,07,57,354.10
2014,06,30,07,58,356.40
2014,06,30,07,59,359.50
2014,06,30,08,00,362.20
2014,06,30,08,01,364.90
2014,06,30,08,02,367.00
2014,06,30,08,03,369.30
2014,06,30,08,04,372.40
2014,06,30,08,05,373.90
2014,06,30,08,06,376.00
2014,06,30,08,07,377.50
2014,06,30,08,08,381.00
2014,06,30,08,09,383.40
2014,06,30,08,10,387.20
2014,06,30,08,11,388.20
2014,06,30,08,12,392.30
2014,06,30,08,13,394.70
2014,06,30,08,14,396.00
2014,06,30,08,15,396.00
2014,06,30,08,16,396.00
2014,06,30,08,17,403.40
2014,06,30,08,18,408.40
2014,06,30,08,19,410.40
2014,06,30,08,20,412.00
2014,06,30,08,21,414.30
2014,06,30,08,22,417.40
2014,06,30,08,23,420.00
2014,06,30,08,24,422.80
2014,06,30,08,25,425.70
2014,06,30,08,26,427.00
2014,06,30,08,27,427.00
2014,06,30,08,28,431.00
2014,06,30,08,29,433.90
2014,06,30,08,30,435.10
2014,06,30,08,31,439.20
2014,06,30,08,32,443.20
2014,06,30,08,33,445.70
2014,06,30,08,34,447.60
2014,06,30,08,35,448.90
2014,06,30,08,36,454.00
2014,06,30,08,37,455.20
2014,06,30,08,38,458.10
2014,06,30,08,39,459.00
2014,06,30,08,40,463.20
2014,06,30,08,41,464.60
2014,06,30,08,42,468.30
2014,06,30,08,43,470.80
2014,06,30,08,44,474.20
2014,06,30,08,45,475.00
2014,06,30,08,46,477.70
2014,06,30,08,47,482.00
2014,06,30,08,48,482.90
2014,06,30,08,49,485.90
2014,06,30,08,50,487.00
2014,06,30,08,51,487.00
2014,06,30,08,52,491.70
2014,06,30,08,53,496.20
2014,06,30,08,54,497.00
2014,06,30,08,55,498.90
2014,06,30,08,56,503.00
2014,06,30,08,57,505.60
2014,06,30,08,58,506.00
2014,06,30,08,59,506.00
2014,06,30,09,00,509.10
2014,06,30,09,01,515.90
2014,06,30,09,02,518.30
2014,06,30,09,03,519.80
2014,06,30,09,04,520.20
2014,06,30,09,05,523.10
2014,06,30,09,06,527.00
2014,06,30,09,07,529.00
2014,06,30,09,08,532.30
2014,06,30,09,09,533.80
2014,06,30,09,10,534.00
2014,06,30,09,11,535.80
2014,06,30,09,12,542.70
2014,06,30,09,13,545.00
2014,06,30,09,14,547.10
2014,06,30,09,15,548.00
2014,06,30,09,16,548.60
2014,06,30,09,17,554.20
2014,06,30,09,18,555.00
2014,06,30,09,19,557.20
2014,06,30,09,20,559.00
2014,06,30,09,21,563.20
2014,06,30,09,22,566.30
2014,06,30,09,23,568.80
2014,06,30,09,24,571.00
2014,06,30,09,25,573.40
2014,06,30,09,26,575.00
2014,06,30,09,27,575.20
2014,06,30,09,28,578.00
2014,06,30,09,29,579.80
2014,06,30,09,30,584.50
2014,06,30,09,31,585.00
2014,06,30,09,32,589.40
2014,06,30,09,33,591.00
2014,06,30,09,34,591.60
2014,06,30,09,35,594.00
2014,06,30,09,36,596.20
2014,06,30,09,37,599.00
2014,06,30,09,38,603.80
2014,06,30,09,39,605.20
2014,06,30,09,40,608.40
2014,06,30,09,41,610.70
2014,06,30,09,42,612.00
2014,06,30,09,43,614.00
2014,06,30,09,44,616.60
2014,06,30,09,45,620.40
2014,06,30,09,46,619.80
2014,06,30,09,47,622.70
2014,06,30,09,48,625.00
2014,06,30,09,49,627.30
2014,06,30,09,50,630.40
2014,06,30,09,51,632.70
2014,06,30,09,52,632.00
2014,06,30,09,53,636.00
2014,06,30,09,54,638.00
2014,06,30,09,55,640.80
2014,06,30,09,56,642.80
2014,06,30,09,57,645.30
2014,06,30,09,58,649.00
2014,06,30,09,59,650.20
2014,06,30,10,00,652.00
2014,06,30,10,01,655.50
2014,06,30,10,02,658.70
2014,06,30,10,03,660.10
2014,06,30,10,04,666.00
2014,06,30,10,05,668.00
2014,06,30,10,06,671.00
2014,06,30,10,07,673.80
2014,06,30,10,08,676.80
2014,06,30,10,09,680.00
2014,06,30,10,10,681.80
2014,06,30,10,11,686.50
2014,06,30,10,12,689.40
2014,06,30,10,13,694.80
2014,06,30,10,14,700.50
2014,06,30,10,15,701.00
2014,06,30,10,16,664.60
2014,06,30,10,17,649.00
2014,06,30,10,18,592.20
2014,06,30,10,19,562.00
2014,06,30,10,20,610.70
2014,06,30,10,21,660.80
2014,06,30,10,22,641.20
2014,06,30,10,23,688.00
2014,06,30,10,24,707.50
2014,06,30,10,25,710.00
2014,06,30,10,26,664.10
2014,06,30,10,27,659.00
2014,06,30,10,28,671.50
2014,06,30,10,29,669.00
2014,06,30,10,30,682.70
2014,06,30,10,31,708.60
2014,06,30,10,32,709.70
2014,06,30,10,33,707.00
2014,06,30,10,34,707.00
2014,06,30,10,35,708.70
2014,06,30,10,36,718.40
2014,06,30,10,37,722.00
2014,06,30,10,38,724.00
2014,06,30,10,39,724.00
2014,06,30,10,40,724.00
2014,06,30,10,41,727.80
2014,06,30,10,42,731.00
2014,06,30,10,43,731.00
2014,06,30,10,44,735.20
2014,06,30,10,45,737.00
2014,06,30,10,46,738.30
2014,06,30,10,47,740.00
2014,06,30,10,48,741.40
2014,06,30,10,49,743.70
2014,06,30,10,50,744.00
2014,06,30,10,51,744.00
2014,06,30,10,52,746.20
2014,06,30,10,53,749.00
2014,06,30,10,54,749.00
2014,06,30,10,55,751.50
2014,06,30,10,56,752.40
2014,06,30,10,57,754.00
2014,06,30,10,58,754.90
2014,06,30,10,59,756.00
2014,06,30,11,00,758.20
2014,06,30,11,01,759.00
2014,06,30,11,02,759.40
2014,06,30,11,03,762.40
2014,06,30,11,04,765.00
2014,06,30,11,05,765.60
2014,06,30,11,06,766.00
2014,06,30,11,07,767.90
2014,06,30,11,08,768.00
2014,06,30,11,09,769.60
2014,06,30,11,10,781.30
2014,06,30,11,11,780.20
2014,06,30,11,12,787.00
2014,06,30,11,13,777.90
2014,06,30,11,14,779.20
2014,06,30,11,15,779.60
2014,06,30,11,16,779.00
2014,06,30,11,17,779.00
2014,06,30,11,18,779.80
2014,06,30,11,19,780.00
2014,06,30,11,20,780.50
2014,06,30,11,21,782.00
2014,06,30,11,22,785.30
2014,06,30,11,23,788.00
2014,06,30,11,24,788.00
2014,06,30,11,25,789.60
2014,06,30,11,26,793.00
2014,06,30,11,27,793.00
2014,06,30,11,28,794.20
2014,06,30,11,29,797.20
2014,06,30,11,30,798.00
2014,06,30,11,31,798.30
2014,06,30,11,32,800.00
2014,06,30,11,33,800.90
2014,06,30,11,34,802.00
2014,06,30,11,35,802.00
2014,06,30,11,36,802.90
2014,06,30,11,37,803.40
2014,06,30,11,38,805.00
2014,06,30,11,39,805.00
2014,06,30,11,40,806.30
2014,06,30,11,41,808.60
2014,06,30,11,42,809.00
2014,06,30,11,43,809.60
2014,06,30,11,44,812.00
2014,06,30,11,45,810.50
2014,06,30,11,46,812.20
2014,06,30,11,47,812.50
2014,06,30,11,48,815.90
2014,06,30,11,49,817.80
2014,06,30,11,50,820.20
2014,06,30,11,51,819.00
2014,06,30,11,52,819.00
2014,06,30,11,53,819.00
2014,06,30,11,54,810.70
2014,06,30,11,55,814.80
2014,06,30,11,56,824.20
2014,06,30,11,57,826.00
2014,06,30,11,58,827.40
2014,06,30,11,59,829.70
2014,06,30,12,00,831.20
2014,06,30,12,01,832.50
2014,06,30,12,02,831.00
2014,06,30,12,03,822.80
2014,06,30,12,04,829.30
2014,06,30,12,05,835.00
2014,06,30,12,06,833.00
2014,06,30,12,07,833.00
2014,06,30,12,08,834.80
2014,06,30,12,09,835.80
2014,06,30,12,10,835.00
2014,06,30,12,11,835.00
2014,06,30,12,12,837.00
2014,06,30,12,13,837.30
2014,06,30,12,14,838.00
2014,06,30,12,15,839.20
2014,06,30,12,16,840.00
2014,06,30,12,17,839.90
2014,06,30,12,18,838.00
2014,06,30,12,19,839.40
2014,06,30,12,20,842.00
2014,06,30,12,21,842.00
2014,06,30,12,22,845.00
2014,06,30,12,23,842.40
2014,06,30,12,24,842.00
2014,06,30,12,25,842.70
2014,06,30,12,26,845.60
2014,06,30,12,27,846.30
2014,06,30,12,28,846.00
2014,06,30,12,29,844.60
2014,06,30,12,30,849.00
2014,06,30,12,31,849.00
2014,06,30,12,32,849.00
2014,06,30,12,33,849.00
2014,06,30,12,34,849.00
2014,06,30,12,35,849.20
2014,06,30,12,36,850.50
2014,06,30,12,37,849.00
2014,06,30,12,38,847.90
2014,06,30,12,39,847.00
2014,06,30,12,40,848.70
2014,06,30,12,41,849.40
2014,06,30,12,42,853.00
2014,06,30,12,43,853.00
2014,06,30,12,44,853.00
2014,06,30,12,45,853.00
2014,06,30,12,46,849.60
2014,06,30,12,47,849.80
2014,06,30,12,48,854.00
2014,06,30,12,49,853.60
2014,06,30,12,50,853.50
2014,06,30,12,51,854.00
2014,06,30,12,52,854.10
2014,06,30,12,53,856.00
2014,06,30,12,54,855.40
2014,06,30,12,55,854.00
2014,06,30,12,56,854.00
2014,06,30,12,57,855.50
2014,06,30,12,58,856.00
2014,06,30,12,59,858.00
2014,06,30,13,00,858.00
2014,06,30,13,01,858.00
2014,06,30,13,02,858.00
2014,06,30,13,03,856.50
2014,06,30,13,04,857.90
2014,06,30,13,05,858.40
2014,06,30,13,06,860.00
2014,06,30,13,07,860.00
2014,06,30,13,08,858.70
2014,06,30,13,09,858.00
2014,06,30,13,10,856.10
2014,06,30,13,11,856.80
2014,06,30,13,12,860.00
2014,06,30,13,13,860.00
2014,06,30,13,14,858.70
2014,06,30,13,15,858.00
2014,06,30,13,16,856.10
2014,06,30,13,17,857.00
2014,06,30,13,18,858.40
2014,06,30,13,19,856.00
2014,06,30,13,20,856.00
2014,06,30,13,21,857.60
2014,06,30,13,22,858.00
2014,06,30,13,23,858.00
2014,06,30,13,24,857.20
2014,06,30,13,25,856.00
2014,06,30,13,26,857.40
2014,06,30,13,27,856.30
2014,06,30,13,28,856.30
2014,06,30,13,29,857.40
2014,06,30,13,30,856.00
2014,06,30,13,31,856.00
2014,06,30,13,32,856.00
2014,06,30,13,33,853.80
2014,06,30,13,34,859.10
2014,06,30,13,35,853.70
2014,06,30,13,36,854.30
2014,06,30,13,37,856.00
2014,06,30,13,38,856.00
2014,06,30,13,39,848.30
2014,06,30,13,40,850.00
2014,06,30,13,41,853.70
2014,06,30,13,42,849.50
2014,06,30,13,43,851.20
2014,06,30,13,44,838.20
2014,06,30,13,45,846.00
2014,06,30,13,46,842.80
2014,06,30,13,47,847.80
2014,06,30,13,48,842.00
2014,06,30,13,49,835.60
2014,06,30,13,50,842.60
2014,06,30,13,51,844.10
2014,06,30,13,52,846.00
2014,06,30,13,53,845.30
2014,06,30,13,54,843.00
2014,06,30,13,55,843.30
2014,06,30,13,56,844.00
2014,06,30,13,57,844.30
2014,06,30,13,58,847.50
2014,06,30,13,59,849.00
2014,06,30,14,00,828.00
2014,06,30,14,01,807.00
2014,06,30,14,02,817.10
2014,06,30,14,03,818.00
2014,06,30,14,04,812.00
2014,06,30,14,05,828.80
2014,06,30,14,06,838.60
2014,06,30,14,07,833.70
2014,06,30,14,08,843.00
2014,06,30,14,09,831.90
2014,06,30,14,10,837.00
2014,06,30,14,11,839.90
2014,06,30,14,12,842.90
2014,06,30,14,13,843.40
2014,06,30,14,14,842.30
2014,06,30,14,15,842.00
2014,06,30,14,16,839.30
2014,06,30,14,17,833.00
2014,06,30,14,18,831.80
2014,06,30,14,19,835.50
2014,06,30,14,20,835.20
2014,06,30,14,21,835.00
2014,06,30,14,22,834.40
2014,06,30,14,23,833.00
2014,06,30,14,24,833.00
2014,06,30,14,25,830.80
2014,06,30,14,26,828.40
2014,06,30,14,27,830.00
2014,06,30,14,28,830.00
2014,06,30,14,29,829.00
2014,06,30,14,30,825.40
2014,06,30,14,31,827.20
2014,06,30,14,32,827.80
2014,06,30,14,33,824.00
2014,06,30,14,34,823.70
2014,06,30,14,35,822.00
2014,06,30,14,36,821.00
2014,06,30,14,37,819.40
2014,06,30,14,38,819.20
2014,06,30,14,39,820.50
2014,06,30,14,40,819.00
2014,06,30,14,41,817.90
2014,06,30,14,42,814.90
2014,06,30,14,43,814.00
2014,06,30,14,44,811.80
2014,06,30,14,45,810.00
2014,06,30,14,46,810.00
2014,06,30,14,47,810.00
2014,06,30,14,48,810.00
2014,06,30,14,49,805.80
2014,06,30,14,50,807.00
2014,06,30,14,51,806.50
2014,06,30,14,52,805.00
2014,06,30,14,53,803.80
2014,06,30,14,54,803.00
2014,06,30,14,55,802.80
2014,06,30,14,56,800.00
2014,06,30,14,57,798.80
2014,06,30,14,58,796.80
2014,06,30,14,59,796.90
2014,06,30,15,00,796.00
2014,06,30,15,01,793.30
2014,06,30,15,02,793.40
2014,06,30,15,03,794.40
2014,06,30,15,04,791.10
2014,06,30,15,05,789.00
2014,06,30,15,06,789.00
2014,06,30,15,07,786.20
2014,06,30,15,08,783.60
2014,06,30,15,09,781.30
2014,06,30,15,10,781.00
2014,06,30,15,11,780.70
2014,06,30,15,12,780.00
2014,06,30,15,13,781.70
2014,06,30,15,14,779.00
2014,06,30,15,15,777.60
2014,06,30,15,16,776.10
2014,06,30,15,17,777.00
2014,06,30,15,18,777.00
2014,06,30,15,19,776.80
2014,06,30,15,20,774.50
2014,06,30,15,21,773.00
2014,06,30,15,22,773.00
2014,06,30,15,23,774.30
2014,06,30,15,24,743.00
2014,06,30,15,25,708.20
2014,06,30,15,26,724.00
2014,06,30,15,27,731.00
2014,06,30,15,28,744.80
2014,06,30,15,29,757.30
2014,06,30,15,30,758.00
2014,06,30,15,31,753.70
2014,06,30,15,32,752.00
2014,06,30,15,33,752.00
2014,06,30,15,34,749.00
2014,06,30,15,35,747.00
2014,06,30,15,36,746.80
2014,06,30,15,37,743.70
2014,06,30,15,38,741.40
2014,06,30,15,39,740.00
2014,06,30,15,40,738.80
2014,06,30,15,41,738.00
2014,06,30,15,42,736.90
2014,06,30,15,43,733.30
2014,06,30,15,44,735.00
2014,06,30,15,45,733.00
2014,06,30,15,46,731.00
2014,06,30,15,47,729.50
2014,06,30,15,48,729.00
2014,06,30,15,49,728.80
2014,06,30,15,50,728.00
2014,06,30,15,51,727.00
2014,06,30,15,52,726.00
2014,06,30,15,53,726.00
2014,06,30,15,54,721.00
2014,06,30,15,55,706.00
2014,06,30,15,56,694.00
2014,06,30,15,57,681.60
2014,06,30,15,58,668.00
2014,06,30,15,59,676.80
2014,06,30,16,00,675.20
2014,06,30,16,01,674.20
2014,06,30,16,02,671.00
2014,06,30,16,03,671.00
2014,06,30,16,04,668.90
2014,06,30,16,05,664.60
2014,06,30,16,06,664.00
2014,06,30,16,07,665.20
2014,06,30,16,08,666.30
2014,06,30,16,09,666.30
2014,06,30,16,10,668.00
2014,06,30,16,11,642.50
2014,06,30,16,12,624.30
2014,06,30,16,13,610.60
2014,06,30,16,14,612.00
2014,06,30,16,15,605.40
2014,06,30,16,16,601.00
2014,06,30,16,17,521.50
2014,06,30,16,18,570.40
2014,06,30,16,19,596.00
2014,06,30,16,20,601.40
2014,06,30,16,21,608.00
2014,06,30,16,22,620.60
2014,06,30,16,23,626.00
2014,06,30,16,24,633.80
2014,06,30,16,25,638.00
2014,06,30,16,26,640.20
2014,06,30,16,27,644.30
2014,06,30,16,28,645.00
2014,06,30,16,29,649.50
2014,06,30,16,30,649.00
2014,06,30,16,31,645.70
2014,06,30,16,32,644.50
2014,06,30,16,33,644.00
2014,06,30,16,34,645.00
2014,06,30,16,35,638.40
2014,06,30,16,36,637.00
2014,06,30,16,37,632.30
2014,06,30,16,38,631.00
2014,06,30,16,39,631.00
2014,06,30,16,40,631.00
2014,06,30,16,41,622.50
2014,06,30,16,42,621.30
2014,06,30,16,43,619.00
2014,06,30,16,44,616.90
2014,06,30,16,45,615.00
2014,06,30,16,46,615.00
2014,06,30,16,47,614.00
2014,06,30,16,48,604.50
2014,06,30,16,49,602.20
2014,06,30,16,50,599.40
2014,06,30,16,51,595.30
2014,06,30,16,52,591.60
2014,06,30,16,53,588.40
2014,06,30,16,54,585.00
2014,06,30,16,55,585.00
2014,06,30,16,56,585.00
2014,06,30,16,57,582.90
2014,06,30,16,58,575.70
2014,06,30,16,59,557.00
2014,06,30,17,00,556.40
2014,06,30,17,01,555.00
2014,06,30,17,02,555.00
2014,06,30,17,03,558.00
2014,06,30,17,04,559.00
2014,06,30,17,05,559.00